Location: East Irvine
(33.6759°N, 117.7598°W)
Time: 22:31:59
(UTC+00:00)

OAO 3 Copernicus - Pass Details

Date: 15 November 2025
Orbit: 689 x 698 km, 35.0° (Epoch: 13 December)

Event Time Altitude Azimuth Distance (km) Brightness Sun altitude
Rises 01:06:31 0° 269° (W) 3,059 9.3 -4.4°
Reaches altitude 10° 01:08:56 10° 270° (W) 2,144 8.3 -4.8°
Maximum altitude 01:13:57 76° 357° (N) 716 4.4 -5.8°
Drops below altitude 10° 01:19:00 10° 83° (E) 2,149 6.2 -6.8°
Enters shadow 01:19:29 - 84° (E) 2,333 6.4 -6.9°
